| time (UTC) | temp C | wind direction | speed KPH | gust KPH | rain 1hr cm | rain 24hr cm | rain mn cm | humidity % | barometer mb |
| 20260507073727 | 11 | 141 | 0.0 | 9.7 | 0.00 | 0.00 | 0.00 | 90 | 1020.8 |
| 20260507073224 | 11 | 74 | 8.0 | 12.9 | 0.00 | 0.00 | 0.00 | 90 | 1020.9 |
| 20260507072722 | 11 | 128 | 4.8 | 12.9 | 0.00 | 0.00 | 0.00 | 90 | 1020.7 |
| 20260507072219 | 11 | 135 | 1.6 | 9.7 | 0.00 | 0.00 | 0.00 | 90 | 1020.8 |
| 20260507071717 | 11 | 162 | 3.2 | 8.0 | 0.00 | 0.00 | 0.00 | 89 | 1020.9 |
| 20260507071213 | 11 | 125 | 1.6 | 11.3 | 0.00 | 0.00 | 0.00 | 89 | 1020.7 |
| 20260507070710 | 11 | 150 | 3.2 | 4.8 | 0.00 | 0.00 | 0.00 | 89 | 1020.8 |
| 20260507070207 | 11 | 125 | 3.2 | 9.7 | 0.00 | 0.00 | 0.00 | 89 | 1020.8 |
| 20260507065703 | 11 | 207 | 6.4 | 9.7 | 0.00 | 0.00 | 0.00 | 89 | 1020.7 |
| 20260507065200 | 11 | 116 | 4.8 | 9.7 | 0.00 | 0.00 | 0.00 | 89 | 1020.9 |
| 20260507064658 | 11 | 184 | 3.2 | 9.7 | 0.00 | 0.00 | 0.00 | 89 | 1020.5 |
| 20260507064156 | 11 | 101 | 0.0 | 4.8 | 0.00 | 0.00 | 0.00 | 89 | 1020.8 |
| 20260507063654 | 11 | 103 | 1.6 | 9.7 | 0.00 | 0.00 | 0.00 | 88 | 1020.7 |
| 20260507063150 | 11 | 103 | 1.6 | 4.8 | 0.00 | 0.00 | 0.00 | 88 | 1020.7 |
| 20260507062647 | 11 | 92 | 4.8 | 9.7 | 0.00 | 0.00 | 0.00 | 88 | 1020.8 |
| 20260507062144 | 11 | 120 | 3.2 | 4.8 | 0.00 | 0.00 | 0.00 | 88 | 1020.7 |
| 20260507061642 | 11 | 109 | 1.6 | 3.2 | 0.00 | 0.00 | 0.00 | 89 | 1020.8 |
| 20260507061140 | 11 | 104 | 0.0 | 3.2 | 0.00 | 0.00 | 0.00 | 88 | 1020.9 |
| 20260507060638 | 11 | 116 | 3.2 | 3.2 | 0.00 | 0.00 | 0.00 | 88 | 1020.5 |
| 20260507060134 | 11 | 116 | 3.2 | 4.8 | 0.00 | 0.00 | 0.00 | 88 | 1020.8 |
| 20260507055629 | 11 | 102 | 0.0 | 4.8 | 0.00 | 0.00 | 0.00 | 88 | 1020.6 |
| 20260507055126 | 11 | 124 | 3.2 | 8.0 | 0.00 | 0.00 | 0.00 | 87 | 1020.8 |
| 20260507054622 | 11 | 136 | 1.6 | 8.0 | 0.00 | 0.00 | 0.00 | 87 | 1020.8 |
| 20260507054119 | 11 | 156 | 4.8 | 8.0 | 0.00 | 0.00 | 0.00 | 87 | 1020.8 |
| 20260507053617 | 11 | 106 | 3.2 | 3.2 | 0.00 | 0.00 | 0.00 | 86 | 1020.7 |
| 20260507053115 | 11 | 89 | 1.6 | 4.8 | 0.00 | 0.00 | 0.00 | 86 | 1020.9 |
| 20260507052613 | 11 | 97 | 6.4 | 9.7 | 0.00 | 0.00 | 0.00 | 85 | 1020.9 |
| 20260507052109 | 12 | 121 | 3.2 | 11.3 | 0.00 | 0.00 | 0.00 | 85 | 1020.9 |
| 20260507051607 | 12 | 133 | 1.6 | 8.0 | 0.00 | 0.00 | 0.00 | 85 | 1020.6 |
| 20260507051103 | 12 | 128 | 1.6 | 3.2 | 0.00 | 0.00 | 0.00 | 85 | 1020.8 |
| 20260507050600 | 12 | 122 | 4.8 | 14.5 | 0.00 | 0.00 | 0.00 | 84 | 1020.5 |
| 20260507050056 | 12 | 164 | 3.2 | 9.7 | 0.00 | 0.00 | 0.00 | 84 | 1020.7 |
| 20260507045553 | 12 | 104 | 3.2 | 11.3 | 0.00 | 0.00 | 0.00 | 84 | 1020.9 |
| 20260507045051 | 12 | 130 | 3.2 | 8.0 | 0.00 | 0.00 | 0.00 | 83 | 1020.8 |
| 20260507044547 | 12 | 109 | 3.2 | 11.3 | 0.00 | 0.00 | 0.00 | 83 | 1020.7 |
| 20260507044044 | 12 | 181 | 4.8 | 8.0 | 0.00 | 0.00 | 0.00 | 83 | 1021.0 |
| 20260507043539 | 12 | 61 | 9.7 | 12.9 | 0.00 | 0.00 | 0.00 | 83 | 1020.9 |
| 20260507043037 | 12 | 152 | 3.2 | 4.8 | 0.00 | 0.00 | 0.00 | 83 | 1020.9 |
| 20260507042533 | 12 | 91 | 8.0 | 9.7 | 0.00 | 0.00 | 0.00 | 82 | 1020.9 |
| 20260507042029 | 12 | 90 | 1.6 | 8.0 | 0.00 | 0.00 | 0.00 | 82 | 1021.0 |
| 20260507041526 | 12 | 125 | 4.8 | 9.7 | 0.00 | 0.00 | 0.00 | 82 | 1020.8 |
| 20260507041023 | 12 | 143 | 1.6 | 8.0 | 0.00 | 0.00 | 0.00 | 82 | 1020.7 |
| 20260507040519 | 12 | 118 | 4.8 | 8.0 | 0.00 | 0.00 | 0.00 | 81 | 1020.7 |
| 20260507040015 | 12 | 76 | 1.6 | 9.7 | 0.00 | 0.00 | 0.00 | 81 | 1020.7 |
| 20260507035511 | 12 | 89 | 4.8 | 8.0 | 0.00 | 0.00 | 0.00 | 81 | 1020.6 |
| 20260507035008 | 12 | 81 | 1.6 | 3.2 | 0.00 | 0.00 | 0.00 | 80 | 1020.7 |
| 20260507034505 | 12 | 75 | 8.0 | 11.3 | 0.00 | 0.00 | 0.00 | 80 | 1020.5 |
| 20260507034003 | 12 | 113 | 3.2 | 8.0 | 0.00 | 0.00 | 0.00 | 79 | 1020.6 |
| 20260507033501 | 13 | 92 | 1.6 | 4.8 | 0.00 | 0.00 | 0.00 | 79 | 1020.3 |
| 20260507032957 | 13 | 129 | 0.0 | 3.2 | 0.00 | 0.00 | 0.00 | 79 | 1020.5 |
| 20260507032454 | 13 | 112 | 1.6 | 3.2 | 0.00 | 0.00 | 0.00 | 79 | 1020.4 |
| 20260507031950 | 13 | 144 | 0.0 | 4.8 | 0.00 | 0.00 | 0.00 | 79 | 1020.6 |
| 20260507031447 | 13 | 153 | 4.8 | 4.8 | 0.00 | 0.00 | 0.00 | 79 | 1020.7 |
| 20260507030944 | 13 | 171 | 4.8 | 4.8 | 0.00 | 0.00 | 0.00 | 78 | 1020.4 |
| 20260507030441 | 13 | 152 | 1.6 | 8.0 | 0.00 | 0.00 | 0.00 | 78 | 1020.4 |
| 20260507025938 | 13 | 157 | 1.6 | 4.8 | 0.00 | 0.00 | 0.00 | 78 | 1020.4 |
| 20260507025435 | 13 | 150 | 4.8 | 4.8 | 0.00 | 0.00 | 0.00 | 79 | 1020.3 |
| 20260507024933 | 13 | 150 | 3.2 | 3.2 | 0.00 | 0.00 | 0.00 | 80 | 1020.3 |
| 20260507024430 | 13 | 175 | 1.6 | 8.0 | 0.00 | 0.00 | 0.00 | 80 | 1020.5 |
| 20260507023926 | 13 | 157 | 4.8 | 4.8 | 0.00 | 0.00 | 0.00 | 78 | 1020.3 |
| 20260507023423 | 13 | 147 | 1.6 | 3.2 | 0.00 | 0.00 | 0.00 | 78 | 1020.2 |
| 20260507022920 | 13 | 128 | 3.2 | 4.8 | 0.00 | 0.00 | 0.00 | 78 | 1020.1 |
| 20260507022417 | 13 | 165 | 4.8 | 8.0 | 0.00 | 0.00 | 0.00 | 77 | 1020.3 |
| 20260507021913 | 13 | 117 | 4.8 | 8.0 | 0.00 | 0.00 | 0.00 | 77 | 1020.1 |
| 20260507021408 | 13 | 126 | 3.2 | 8.0 | 0.00 | 0.00 | 0.00 | 77 | 1020.1 |
| 20260507020906 | 13 | 120 | 1.6 | 3.2 | 0.00 | 0.00 | 0.00 | 77 | 1020.1 |
| 20260507020402 | 13 | 122 | 3.2 | 9.7 | 0.00 | 0.00 | 0.00 | 77 | 1020.3 |
| 20260507015859 | 13 | 116 | 3.2 | 8.0 | 0.00 | 0.00 | 0.00 | 77 | 1020.3 |
| 20260507015358 | 13 | 105 | 9.7 | 11.3 | 0.00 | 0.00 | 0.00 | 77 | 1020.1 |
| 20260507014854 | 13 | 124 | 4.8 | 8.0 | 0.00 | 0.00 | 0.00 | 77 | 1020.0 |
| 20260507014350 | 13 | 123 | 4.8 | 11.3 | 0.00 | 0.00 | 0.00 | 77 | 1020.2 |
| 20260507013847 | 13 | 102 | 6.4 | 9.7 | 0.00 | 0.00 | 0.00 | 77 | 1019.9 |
| 20260507013344 | 13 | 166 | 4.8 | 8.0 | 0.00 | 0.00 | 0.00 | 77 | 1020.1 |
| 20260507012842 | 13 | 132 | 0.0 | 9.7 | 0.00 | 0.00 | 0.00 | 77 | 1020.2 |
| 20260507012337 | 13 | 78 | 3.2 | 9.7 | 0.00 | 0.00 | 0.00 | 77 | 1020.3 |
| 20260507011835 | 13 | 142 | 3.2 | 8.0 | 0.00 | 0.00 | 0.00 | 77 | 1020.3 |
| 20260507011332 | 13 | 106 | 0.0 | 9.7 | 0.00 | 0.00 | 0.00 | 77 | 1020.0 |
| 20260507010831 | 13 | 106 | 1.6 | 4.8 | 0.00 | 0.00 | 0.00 | 77 | 1020.2 |
| 20260507010327 | 13 | 103 | 1.6 | 11.3 | 0.00 | 0.00 | 0.00 | 77 | 1020.2 |
| 20260507005825 | 13 | 161 | 3.2 | 16.1 | 0.00 | 0.00 | 0.00 | 77 | 1020.4 |
| 20260507005321 | 13 | 105 | 8.0 | 9.7 | 0.00 | 0.00 | 0.00 | 76 | 1020.3 |
| 20260507004813 | 13 | 102 | 0.0 | 9.7 | 0.00 | 0.00 | 0.00 | 77 | 1020.2 |
| 20260507004310 | 13 | 108 | 8.0 | 12.9 | 0.00 | 0.00 | 0.00 | 77 | 1020.2 |
| 20260507003807 | 13 | 144 | 6.4 | 12.9 | 0.00 | 0.00 | 0.00 | 77 | 1020.3 |
| 20260507003302 | 13 | 137 | 4.8 | 8.0 | 0.00 | 0.00 | 0.00 | 76 | 1020.4 |
| 20260507002757 | 13 | 122 | 4.8 | 9.7 | 0.00 | 0.00 | 0.00 | 76 | 1020.2 |
| 20260507002254 | 13 | 117 | 1.6 | 12.9 | 0.00 | 0.00 | 0.00 | 77 | 1020.2 |
| 20260507001751 | 13 | 100 | 6.4 | 11.3 | 0.00 | 0.00 | 0.00 | 76 | 1020.2 |
| 20260507001248 | 13 | 111 | 11.3 | 14.5 | 0.00 | 0.00 | 0.00 | 76 | 1020.4 |
| 20260507000744 | 13 | 112 | 4.8 | 9.7 | 0.00 | 0.00 | 0.00 | 76 | 1020.2 |
| 20260507000240 | 13 | 129 | 8.0 | 12.9 | 0.00 | 0.00 | 0.00 | 76 | 1020.1 |
| 20260506235737 | 13 | 97 | 6.4 | 12.9 | 0.00 | 0.00 | 0.00 | 76 | 1020.1 |
| 20260506235232 | 13 | 147 | 1.6 | 9.7 | 0.00 | 0.00 | 0.00 | 76 | 1020.3 |
| 20260506234730 | 13 | 200 | 11.3 | 16.1 | 0.00 | 0.00 | 0.00 | 76 | 1020.4 |
| 20260506234227 | 13 | 86 | 1.6 | 8.0 | 0.00 | 0.00 | 0.00 | 76 | 1020.6 |
| 20260506233724 | 13 | 159 | 3.2 | 12.9 | 0.00 | 0.00 | 0.00 | 76 | 1020.6 |
| 20260506233220 | 13 | 136 | 4.8 | 12.9 | 0.00 | 0.00 | 0.00 | 76 | 1020.1 |
| 20260506232717 | 13 | 130 | 4.8 | 12.9 | 0.00 | 0.00 | 0.00 | 76 | 1020.3 |
| 20260506232212 | 13 | 145 | 3.2 | 4.8 | 0.00 | 0.00 | 0.00 | 76 | 1020.3 |
| 20260506231710 | 13 | 137 | 1.6 | 9.7 | 0.00 | 0.00 | 0.00 | 77 | 1020.4 |
| 20260506231208 | 13 | 199 | 3.2 | 11.3 | 0.00 | 0.00 | 0.00 | 76 | 1020.3 |
| 20260506230704 | 13 | 93 | 8.0 | 9.7 | 0.00 | 0.00 | 0.00 | 76 | 1020.3 |
| 20260506230201 | 13 | 101 | 8.0 | 16.1 | 0.00 | 0.00 | 0.00 | 76 | 1020.3 |
| 20260506225658 | 13 | 156 | 4.8 | 8.0 | 0.00 | 0.00 | 0.00 | 75 | 1020.5 |
| 20260506225155 | 13 | 153 | 6.4 | 11.3 | 0.00 | 0.00 | 0.00 | 75 | 1020.3 |
| 20260506224651 | 13 | 91 | 4.8 | 11.3 | 0.00 | 0.00 | 0.00 | 75 | 1020.6 |
| 20260506224148 | 13 | 129 | 6.4 | 11.3 | 0.00 | 0.00 | 0.00 | 76 | 1020.3 |
| 20260506223645 | 13 | 180 | 9.7 | 14.5 | 0.00 | 0.00 | 0.00 | 75 | 1020.5 |
| 20260506223140 | 13 | 191 | 6.4 | 11.3 | 0.00 | 0.00 | 0.00 | 75 | 1020.3 |
| 20260506222637 | 13 | 160 | 4.8 | 11.3 | 0.00 | 0.00 | 0.00 | 74 | 1020.4 |
| 20260506222133 | 13 | 116 | 9.7 | 12.9 | 0.00 | 0.00 | 0.00 | 74 | 1020.4 |
| 20260506221631 | 13 | 111 | 4.8 | 11.3 | 0.00 | 0.00 | 0.00 | 73 | 1020.5 |
| 20260506221129 | 13 | 147 | 3.2 | 9.7 | 0.00 | 0.00 | 0.00 | 73 | 1020.7 |
| 20260506220626 | 13 | 135 | 1.6 | 3.2 | 0.00 | 0.00 | 0.00 | 72 | 1020.4 |
| 20260506220121 | 13 | 165 | 6.4 | 11.3 | 0.00 | 0.00 | 0.00 | 73 | 1020.5 |
| 20260506215618 | 13 | 125 | 11.3 | 12.9 | 0.00 | 0.00 | 0.00 | 72 | 1020.7 |
| 20260506215113 | 13 | 136 | 4.8 | 9.7 | 0.00 | 0.00 | 0.00 | 72 | 1020.7 |
| 20260506214610 | 13 | 145 | 4.8 | 11.3 | 0.00 | 0.00 | 0.00 | 71 | 1020.7 |
| 20260506214108 | 13 | 115 | 8.0 | 12.9 | 0.00 | 0.00 | 0.00 | 71 | 1020.7 |
| 20260506213606 | 13 | 141 | 1.6 | 9.7 | 0.00 | 0.00 | 0.00 | 72 | 1020.5 |
| 20260506213103 | 13 | 152 | 3.2 | 8.0 | 0.00 | 0.00 | 0.00 | 72 | 1020.4 |
| 20260506212600 | 13 | 154 | 4.8 | 9.7 | 0.00 | 0.00 | 0.00 | 71 | 1020.6 |
| 20260506212054 | 13 | 194 | 4.8 | 9.7 | 0.00 | 0.00 | 0.00 | 72 | 1020.8 |
| 20260506211551 | 13 | 109 | 1.6 | 8.0 | 0.00 | 0.00 | 0.00 | 71 | 1020.6 |
| 20260506211048 | 13 | 140 | 8.0 | 12.9 | 0.00 | 0.00 | 0.00 | 71 | 1020.6 |
| 20260506210544 | 13 | 166 | 4.8 | 8.0 | 0.00 | 0.00 | 0.00 | 71 | 1020.8 |
| 20260506210041 | 13 | 139 | 11.3 | 12.9 | 0.00 | 0.00 | 0.00 | 71 | 1020.7 |
| 20260506205538 | 13 | 186 | 6.4 | 11.3 | 0.00 | 0.00 | 0.00 | 71 | 1020.4 |
| 20260506205033 | 13 | 127 | 4.8 | 14.5 | 0.00 | 0.00 | 0.00 | 71 | 1020.6 |
| 20260506204531 | 13 | 152 | 4.8 | 12.9 | 0.00 | 0.00 | 0.00 | 71 | 1021.0 |
| 20260506204028 | 13 | 170 | 4.8 | 9.7 | 0.00 | 0.00 | 0.00 | 71 | 1020.7 |
| 20260506203526 | 13 | 205 | 11.3 | 14.5 | 0.00 | 0.00 | 0.00 | 71 | 1020.3 |
| 20260506203022 | 13 | 86 | 4.8 | 8.0 | 0.00 | 0.00 | 0.00 | 71 | 1020.3 |
| 20260506202520 | 13 | 137 | 4.8 | 12.9 | 0.00 | 0.00 | 0.00 | 72 | 1020.5 |
| 20260506202016 | 13 | 118 | 4.8 | 14.5 | 0.00 | 0.00 | 0.00 | 72 | 1020.6 |
| 20260506201514 | 13 | 173 | 3.2 | 8.0 | 0.00 | 0.00 | 0.00 | 72 | 1020.4 |
| 20260506201010 | 13 | 82 | 1.6 | 4.8 | 0.00 | 0.00 | 0.00 | 72 | 1020.5 |
| 20260506200506 | 13 | 97 | 11.3 | 14.5 | 0.00 | 0.00 | 0.00 | 73 | 1020.4 |
| 20260506200004 | 13 | 158 | 11.3 | 14.5 | 0.00 | 0.00 | 0.00 | 74 | 1020.4 |
| 20260506195501 | 13 | 121 | 6.4 | 8.0 | 0.00 | 0.00 | 0.00 | 74 | 1020.3 |
| 20260506194956 | 13 | 140 | 6.4 | 12.9 | 0.00 | 0.00 | 0.00 | 75 | 1020.4 |
| 20260506194454 | 13 | 135 | 3.2 | 11.3 | 0.00 | 0.00 | 0.00 | 76 | 1020.3 |
| 20260506193950 | 13 | 109 | 4.8 | 8.0 | 0.00 | 0.00 | 0.00 | 76 | 1020.4 |
| 20260506193448 | 12 | 123 | 1.6 | 3.2 | 0.00 | 0.00 | 0.00 | 76 | 1020.4 |
| 20260506192938 | 12 | 174 | 4.8 | 12.9 | 0.00 | 0.00 | 0.00 | 77 | 1020.3 |
| 20260506192435 | 13 | 183 | 6.4 | 12.9 | 0.00 | 0.00 | 0.00 | 77 | 1020.2 |
| 20260506191932 | 12 | 134 | 4.8 | 8.0 | 0.00 | 0.00 | 0.00 | 77 | 1020.1 |
| 20260506191429 | 12 | 169 | 4.8 | 9.7 | 0.00 | 0.00 | 0.00 | 77 | 1020.3 |
| 20260506190926 | 12 | 117 | 8.0 | 14.5 | 0.00 | 0.00 | 0.00 | 79 | 1020.3 |
| 20260506190422 | 12 | 109 | 1.6 | 12.9 | 0.00 | 0.00 | 0.00 | 79 | 1020.3 |
| 20260506185919 | 12 | 128 | 3.2 | 12.9 | 0.00 | 0.00 | 0.00 | 78 | 1020.0 |
| 20260506185416 | 12 | 143 | 6.4 | 9.7 | 0.00 | 0.00 | 0.00 | 78 | 1020.3 |
| 20260506184913 | 12 | 79 | 4.8 | 9.7 | 0.00 | 0.00 | 0.00 | 79 | 1020.2 |
| 20260506184410 | 12 | 97 | 4.8 | 8.0 | 0.00 | 0.00 | 0.00 | 78 | 1020.2 |
| 20260506183907 | 12 | 194 | 6.4 | 11.3 | 0.00 | 0.00 | 0.00 | 80 | 1020.3 |
| 20260506183402 | 12 | 109 | 1.6 | 9.7 | 0.00 | 0.00 | 0.00 | 80 | 1020.3 |
| 20260506182900 | 12 | 94 | 8.0 | 9.7 | 0.00 | 0.00 | 0.00 | 81 | 1020.1 |
| 20260506182357 | 12 | 76 | 6.4 | 9.7 | 0.00 | 0.00 | 0.00 | 82 | 1020.2 |
| 20260506181854 | 12 | 173 | 4.8 | 12.9 | 0.00 | 0.00 | 0.00 | 83 | 1020.4 |
| 20260506181352 | 12 | 137 | 3.2 | 4.8 | 0.00 | 0.00 | 0.00 | 83 | 1020.3 |
| 20260506180849 | 12 | 120 | 1.6 | 9.7 | 0.00 | 0.00 | 0.00 | 85 | 1020.4 |
| 20260506180345 | 12 | 115 | 9.7 | 11.3 | 0.00 | 0.00 | 0.00 | 85 | 1020.2 |
| 20260506175841 | 12 | 153 | 6.4 | 11.3 | 0.00 | 0.00 | 0.00 | 85 | 1020.1 |
| 20260506175338 | 12 | 184 | 4.8 | 9.7 | 0.00 | 0.00 | 0.00 | 85 | 1020.0 |
| 20260506174835 | 12 | 138 | 1.6 | 9.7 | 0.00 | 0.00 | 0.00 | 85 | 1019.7 |
| 20260506174333 | 12 | 127 | 0.0 | 12.9 | 0.00 | 0.00 | 0.00 | 87 | 1019.8 |
| 20260506173830 | 12 | 86 | 6.4 | 11.3 | 0.00 | 0.00 | 0.00 | 86 | 1019.9 |
| 20260506173327 | 12 | 145 | 1.6 | 8.0 | 0.00 | 0.00 | 0.00 | 86 | 1019.8 |
| 20260506172824 | 11 | 99 | 6.4 | 9.7 | 0.00 | 0.00 | 0.00 | 88 | 1019.8 |
| 20260506172321 | 11 | 124 | 4.8 | 12.9 | 0.00 | 0.00 | 0.00 | 89 | 1020.0 |
| 20260506171818 | 11 | 115 | 4.8 | 9.7 | 0.00 | 0.00 | 0.00 | 90 | 1020.1 |
| 20260506171315 | 11 | 89 | 1.6 | 9.7 | 0.00 | 0.00 | 0.00 | 90 | 1020.0 |
| 20260506170813 | 11 | 107 | 8.0 | 14.5 | 0.00 | 0.00 | 0.00 | 90 | 1020.0 |
| 20260506170308 | 11 | 116 | 11.3 | 14.5 | 0.00 | 0.00 | 0.00 | 89 | 1020.0 |
| 20260506165808 | 11 | 103 | 11.3 | 16.1 | 0.00 | 0.00 | 0.00 | 87 | 1019.9 |
| 20260506165306 | 11 | 120 | 8.0 | 16.1 | 0.00 | 0.00 | 0.00 | 87 | 1020.2 |
| 20260506164801 | 11 | 133 | 6.4 | 11.3 | 0.00 | 0.00 | 0.00 | 86 | 1019.9 |
| 20260506164258 | 11 | 95 | 4.8 | 9.7 | 0.00 | 0.00 | 0.00 | 87 | 1019.8 |
| 20260506163755 | 11 | 63 | 3.2 | 8.0 | 0.00 | 0.00 | 0.00 | 88 | 1019.8 |
| 20260506163250 | 11 | 121 | 4.8 | 9.7 | 0.00 | 0.00 | 0.00 | 88 | 1020.2 |
| 20260506162746 | 11 | 134 | 4.8 | 11.3 | 0.00 | 0.00 | 0.00 | 89 | 1019.9 |
| 20260506162244 | 11 | 121 | 3.2 | 11.3 | 0.00 | 0.00 | 0.00 | 89 | 1019.9 |
| 20260506161741 | 11 | 140 | 4.8 | 12.9 | 0.00 | 0.00 | 0.00 | 89 | 1019.9 |
| 20260506161238 | 11 | 104 | 1.6 | 12.9 | 0.00 | 0.00 | 0.00 | 90 | 1019.4 |
| 20260506160736 | 11 | 125 | 6.4 | 11.3 | 0.00 | 0.00 | 0.00 | 90 | 1019.4 |
| 20260506160232 | 11 | 93 | 4.8 | 9.7 | 0.00 | 0.00 | 0.00 | 91 | 1019.4 |
| 20260506155731 | 11 | 111 | 6.4 | 11.3 | 0.00 | 0.00 | 0.00 | 92 | 1019.3 |
| 20260506155227 | 11 | 74 | 9.7 | 12.9 | 0.00 | 0.00 | 0.00 | 92 | 1019.4 |
| 20260506153335 | 11 | 97 | 6.4 | 9.7 | 0.00 | 0.00 | 0.00 | 94 | 1019.5 |
| 20260506152832 | 10 | 149 | 4.8 | 11.3 | 0.00 | 0.00 | 0.00 | 95 | 1019.8 |
| 20260506152329 | 10 | 127 | 4.8 | 9.7 | 0.00 | 0.00 | 0.00 | 95 | 1019.7 |
| 20260506151828 | 10 | 103 | 6.4 | 9.7 | 0.00 | 0.00 | 0.00 | 95 | 1019.7 |
| 20260506151324 | 11 | 98 | 1.6 | 8.0 | 0.00 | 0.00 | 0.00 | 95 | 1019.6 |
| 20260506150821 | 10 | 114 | 1.6 | 1.6 | 0.00 | 0.00 | 0.00 | 96 | 1019.7 |
| 20260506150318 | 11 | 100 | 3.2 | 9.7 | 0.00 | 0.00 | 0.00 | 95 | 1019.4 |
| 20260506145815 | 10 | 89 | 1.6 | 8.0 | 0.00 | 0.00 | 0.00 | 95 | 1019.3 |
| 20260506145311 | 11 | 97 | 6.4 | 12.9 | 0.00 | 0.00 | 0.00 | 95 | 1019.0 |
| 20260506144809 | 11 | 119 | 3.2 | 11.3 | 0.00 | 0.00 | 0.00 | 95 | 1019.3 |
| 20260506144305 | 10 | 131 | 3.2 | 11.3 | 0.00 | 0.00 | 0.00 | 95 | 1019.5 |
| 20260506143803 | 10 | 121 | 4.8 | 9.7 | 0.00 | 0.00 | 0.00 | 95 | 1019.3 |
| 20260506143300 | 10 | 125 | 8.0 | 12.9 | 0.00 | 0.00 | 0.00 | 95 | 1019.4 |
| 20260506142758 | 10 | 119 | 1.6 | 8.0 | 0.00 | 0.00 | 0.00 | 95 | 1019.5 |
| 20260506142256 | 10 | 153 | 8.0 | 9.7 | 0.00 | 0.00 | 0.00 | 94 | 1019.5 |
| 20260506141754 | 10 | 124 | 3.2 | 4.8 | 0.00 | 0.00 | 0.00 | 94 | 1019.4 |
| 20260506141252 | 10 | 124 | 1.6 | 8.0 | 0.00 | 0.00 | 0.00 | 94 | 1019.4 |
| 20260506140749 | 10 | 140 | 1.6 | 3.2 | 0.00 | 0.00 | 0.00 | 94 | 1019.4 |
| 20260506140246 | 10 | 155 | 4.8 | 4.8 | 0.00 | 0.00 | 0.00 | 94 | 1019.4 |
| 20260506135743 | 10 | 105 | 3.2 | 4.8 | 0.00 | 0.00 | 0.00 | 94 | 1019.2 |
| 20260506135239 | 10 | 90 | 4.8 | 8.0 | 0.00 | 0.00 | 0.00 | 94 | 1019.1 |
| 20260506134736 | 10 | 120 | 4.8 | 8.0 | 0.00 | 0.00 | 0.00 | 93 | 1019.2 |
| 20260506134233 | 10 | 149 | 4.8 | 4.8 | 0.00 | 0.00 | 0.00 | 93 | 1019.3 |
| 20260506133730 | 11 | 163 | 6.4 | 8.0 | 0.00 | 0.00 | 0.00 | 92 | 1019.1 |
| 20260506133226 | 11 | 148 | 3.2 | 4.8 | 0.00 | 0.00 | 0.00 | 92 | 1019.4 |
| 20260506132723 | 11 | 92 | 3.2 | 9.7 | 0.00 | 0.00 | 0.00 | 91 | 1018.9 |
| 20260506132221 | 11 | 167 | 4.8 | 4.8 | 0.00 | 0.00 | 0.00 | 91 | 1019.3 |
| 20260506131719 | 11 | 174 | 4.8 | 9.7 | 0.00 | 0.00 | 0.00 | 91 | 1019.0 |
| 20260506131214 | 11 | 149 | 3.2 | 9.7 | 0.00 | 0.00 | 0.00 | 91 | 1019.1 |
| 20260506130711 | 11 | 144 | 3.2 | 8.0 | 0.00 | 0.00 | 0.00 | 91 | 1018.9 |
| 20260506130208 | 11 | 96 | 1.6 | 3.2 | 0.00 | 0.00 | 0.00 | 91 | 1019.2 |
| 20260506125706 | 11 | 161 | 1.6 | 8.0 | 0.00 | 0.00 | 0.00 | 91 | 1018.8 |
| 20260506125204 | 11 | 118 | 3.2 | 8.0 | 0.00 | 0.00 | 0.00 | 91 | 1018.3 |
| 20260506124702 | 11 | 126 | 3.2 | 8.0 | 0.00 | 0.00 | 0.00 | 90 | 1018.5 |
| 20260506124200 | 11 | 125 | 3.2 | 9.7 | 0.00 | 0.00 | 0.00 | 90 | 1018.8 |
| 20260506123657 | 11 | 196 | 3.2 | 4.8 | 0.00 | 0.00 | 0.00 | 90 | 1018.5 |
| 20260506123155 | 11 | 111 | 4.8 | 11.3 | 0.00 | 0.00 | 0.00 | 90 | 1018.8 |
| 20260506122652 | 11 | 168 | 3.2 | 8.0 | 0.00 | 0.00 | 0.00 | 90 | 1018.4 |
| 20260506122149 | 11 | 129 | 3.2 | 9.7 | 0.00 | 0.00 | 0.00 | 90 | 1018.3 |
| 20260506121647 | 11 | 109 | 3.2 | 8.0 | 0.00 | 0.00 | 0.00 | 90 | 1018.4 |
| 20260506121143 | 11 | 129 | 1.6 | 8.0 | 0.00 | 0.00 | 0.00 | 90 | 1018.2 |
| 20260506120641 | 11 | 119 | 6.4 | 8.0 | 0.00 | 0.00 | 0.00 | 90 | 1018.3 |
| 20260506120138 | 11 | 107 | 4.8 | 12.9 | 0.00 | 0.00 | 0.00 | 90 | 1018.3 |
| 20260506115637 | 11 | 115 | 4.8 | 9.7 | 0.00 | 0.00 | 0.00 | 89 | 1018.3 |
| 20260506115134 | 11 | 142 | 4.8 | 4.8 | 0.00 | 0.00 | 0.00 | 89 | 1018.5 |
| 20260506114631 | 11 | 165 | 1.6 | 8.0 | 0.00 | 0.00 | 0.00 | 89 | 1018.3 |
| 20260506114129 | 11 | 159 | 4.8 | 12.9 | 0.00 | 0.00 | 0.00 | 90 | 1018.2 |
| 20260506113628 | 11 | 147 | 6.4 | 12.9 | 0.00 | 0.00 | 0.00 | 89 | 1018.1 |
| 20260506113124 | 11 | 121 | 1.6 | 8.0 | 0.00 | 0.00 | 0.00 | 89 | 1017.9 |
| 20260506112620 | 11 | 104 | 1.6 | 4.8 | 0.00 | 0.00 | 0.00 | 89 | 1017.9 |
| 20260506112118 | 11 | 130 | 3.2 | 8.0 | 0.00 | 0.00 | 0.00 | 90 | 1017.9 |
| 20260506111616 | 11 | 88 | 6.4 | 9.7 | 0.00 | 0.00 | 0.00 | 90 | 1017.9 |
| 20260506111113 | 11 | 64 | 1.6 | 8.0 | 0.00 | 0.00 | 0.00 | 90 | 1017.9 |
| 20260506110610 | 11 | 105 | 1.6 | 3.2 | 0.00 | 0.00 | 0.00 | 90 | 1017.8 |
| 20260506110108 | 11 | 88 | 1.6 | 9.7 | 0.00 | 0.00 | 0.00 | 90 | 1017.9 |
| 20260506105604 | 11 | 119 | 1.6 | 4.8 | 0.00 | 0.00 | 0.00 | 90 | 1017.8 |
| 20260506105101 | 11 | 70 | 3.2 | 9.7 | 0.00 | 0.00 | 0.00 | 90 | 1017.8 |
| 20260506104559 | 11 | 100 | 4.8 | 9.7 | 0.00 | 0.00 | 0.00 | 90 | 1017.6 |
| 20260506104057 | 11 | 127 | 4.8 | 9.7 | 0.00 | 0.00 | 0.00 | 90 | 1017.8 |
| 20260506103554 | 11 | 161 | 3.2 | 4.8 | 0.00 | 0.00 | 0.00 | 90 | 1017.6 |
| 20260506103050 | 11 | 101 | 3.2 | 8.0 | 0.00 | 0.00 | 0.00 | 90 | 1017.9 |
| 20260506102549 | 11 | 105 | 6.4 | 11.3 | 0.00 | 0.00 | 0.00 | 90 | 1017.7 |
| 20260506102046 | 11 | 122 | 6.4 | 11.3 | 0.00 | 0.00 | 0.00 | 90 | 1017.6 |
| 20260506101542 | 11 | 100 | 4.8 | 8.0 | 0.00 | 0.00 | 0.00 | 89 | 1017.4 |
| 20260506101039 | 11 | 137 | 4.8 | 11.3 | 0.00 | 0.00 | 0.00 | 89 | 1017.7 |
| 20260506100538 | 11 | 163 | 8.0 | 12.9 | 0.00 | 0.00 | 0.00 | 89 | 1017.9 |
| 20260506100036 | 11 | 142 | 11.3 | 16.1 | 0.00 | 0.00 | 0.00 | 89 | 1017.6 |
| 20260506095534 | 11 | 159 | 8.0 | 11.3 | 0.00 | 0.00 | 0.00 | 89 | 1017.8 |
| 20260506095030 | 11 | 151 | 8.0 | 12.9 | 0.00 | 0.00 | 0.00 | 89 | 1017.5 |
| 20260506094528 | 11 | 102 | 6.4 | 9.7 | 0.00 | 0.00 | 0.00 | 88 | 1017.6 |
| 20260506094026 | 11 | 117 | 4.8 | 9.7 | 0.00 | 0.00 | 0.00 | 88 | 1017.2 |
| 20260506093524 | 11 | 121 | 4.8 | 8.0 | 0.00 | 0.00 | 0.00 | 88 | 1017.2 |
| 20260506093021 | 11 | 135 | 3.2 | 11.3 | 0.00 | 0.00 | 0.00 | 89 | 1017.1 |
| 20260506092519 | 11 | 157 | 4.8 | 11.3 | 0.00 | 0.00 | 0.00 | 89 | 1017.4 |
| 20260506092015 | 11 | 148 | 3.2 | 9.7 | 0.00 | 0.00 | 0.00 | 88 | 1017.4 |
| 20260506091514 | 11 | 83 | 4.8 | 9.7 | 0.00 | 0.00 | 0.00 | 88 | 1017.1 |
| 20260506091010 | 11 | 54 | 8.0 | 9.7 | 0.00 | 0.00 | 0.00 | 88 | 1017.2 |
| 20260506090508 | 11 | 152 | 4.8 | 11.3 | 0.00 | 0.00 | 0.00 | 88 | 1017.2 |
| 20260506090004 | 11 | 172 | 6.4 | 11.3 | 0.00 | 0.00 | 0.00 | 87 | 1017.1 |
| 20260506085502 | 11 | 136 | 3.2 | 4.8 | 0.00 | 0.00 | 0.00 | 87 | 1017.1 |
| 20260506084958 | 11 | 165 | 3.2 | 4.8 | 0.00 | 0.00 | 0.00 | 87 | 1017.0 |
| 20260506084454 | 11 | 133 | 4.8 | 9.7 | 0.00 | 0.00 | 0.00 | 87 | 1017.1 |
| 20260506083950 | 11 | 99 | 4.8 | 8.0 | 0.00 | 0.00 | 0.00 | 86 | 1017.0 |
| 20260506083448 | 12 | 132 | 3.2 | 11.3 | 0.00 | 0.00 | 0.00 | 86 | 1017.0 |
| 20260506082945 | 12 | 126 | 3.2 | 8.0 | 0.00 | 0.00 | 0.00 | 86 | 1016.9 |
| 20260506082442 | 12 | 126 | 6.4 | 9.7 | 0.00 | 0.00 | 0.00 | 86 | 1016.7 |
| 20260506081938 | 12 | 77 | 8.0 | 11.3 | 0.00 | 0.00 | 0.00 | 86 | 1016.7 |
| 20260506081436 | 12 | 96 | 4.8 | 8.0 | 0.00 | 0.00 | 0.00 | 86 | 1016.6 |
| 20260506080933 | 12 | 96 | 4.8 | 14.5 | 0.00 | 0.00 | 0.00 | 86 | 1016.6 |
| 20260506080430 | 12 | 109 | 6.4 | 9.7 | 0.00 | 0.00 | 0.00 | 86 | 1016.6 |